EW1198 Weather Reports


time (UTC)temp
C
wind
direction
speed
KPH
gust
KPH
rain 1hr
cm
rain 24hr
cm
rain mn
cm
humidity
%
barometer
mb
20260504215304 22 285 0.0 4.8 0.00 0.00 0.00 50 1003.7
20260504214804 22 310 0.0 4.8 0.00 0.00 0.00 50 1004.0
20260504214303 22 310 1.6 8.0 0.00 0.00 0.00 50 1004.0
20260504213804 22 337 0.0 3.2 0.00 0.00 0.00 53 1004.1
20260504213304 22 353 0.0 4.8 0.00 0.00 0.00 54 1004.0
20260504212803 22 0 0.0 4.8 0.00 0.00 0.00 54 1003.9
20260504211304 21 215 0.0 3.2 0.00 0.03 0.00 56 1004.0
20260504210804 21 314 0.0 8.0 0.00 0.03 0.00 55 1004.0
20260504210303 21 21 0.0 4.8 0.00 0.03 0.00 56 1004.3
20260504205804 21 323 1.6 4.8 0.00 0.03 0.00 55 1004.4
20260504205304 21 179 0.0 4.8 0.00 0.03 0.00 55 1003.6
20260504204804 21 158 0.0 11.3 0.00 0.03 0.00 55 1004.1
20260504204304 21 177 0.0 4.8 0.00 0.03 0.00 55 1004.5
20260504203803 21 303 1.6 11.3 0.00 0.03 0.00 56 1005.0
20260504203303 21 327 0.0 4.8 0.00 0.03 0.00 56 1005.1
20260504202803 21 339 1.6 4.8 0.00 0.03 0.00 57 1005.0
20260504201804 21 340 1.6 8.0 0.00 0.03 0.00 56 1005.3
20260504201304 21 84 1.6 8.0 0.00 0.03 0.00 56 1005.1
20260504200805 21 326 0.0 9.7 0.00 0.03 0.00 57 1004.8
20260504195803 20 328 1.6 12.9 0.00 0.03 0.00 57 1004.9
20260504194804 20 353 1.6 9.7 0.00 0.03 0.00 58 1004.8
20260504194303 20 171 0.0 4.8 0.00 0.03 0.00 59 1004.8
20260504193804 20 342 0.0 11.3 0.00 0.03 0.00 60 1004.9
20260504192804 20 42 1.6 8.0 0.00 0.03 0.00 62 1005.2
20260504191803 20 350 1.6 14.5 0.00 0.03 0.00 55 1005.3
20260504191304 21 320 1.6 22.5 0.00 0.03 0.00 55 1005.7
20260504190804 21 66 3.2 24.1 0.00 0.03 0.00 54 1005.9
20260504190304 21 272 0.0 22.5 0.00 0.03 0.00 55 1005.9
20260504185803 21 294 3.2 19.3 0.00 0.03 0.00 54 1005.9
20260504185304 22 287 1.6 4.8 0.00 0.03 0.00 53 1005.7
20260504184804 22 344 1.6 9.7 0.00 0.03 0.00 54 1005.7
20260504184304 21 285 0.0 8.0 0.00 0.03 0.00 54 1005.9
20260504183804 21 305 1.6 4.8 0.00 0.03 0.00 53 1005.6
20260504183303 22 327 1.6 8.0 0.00 0.03 0.00 52 1005.3
20260504182804 22 141 0.0 4.8 0.00 0.03 0.00 53 1005.5
20260504181803 21 4 0.0 4.8 0.00 0.03 0.00 53 1005.4
20260504181304 22 229 3.2 24.1 0.00 0.03 0.00 52 1005.6
20260504180804 22 291 1.6 11.3 0.00 0.03 0.00 52 1005.2
20260504180303 22 171 1.6 8.0 0.00 0.03 0.00 53 1005.0
20260504175804 21 296 1.6 8.0 0.00 0.03 0.00 52 1005.1
20260504175304 21 321 1.6 9.7 0.00 0.03 0.00 53 1005.3
20260504174804 21 356 1.6 16.1 0.00 0.03 0.00 52 1005.2
20260504174304 21 289 1.6 8.0 0.00 0.03 0.00 52 1005.1
20260504173804 21 310 1.6 8.0 0.00 0.03 0.00 52 1005.1
20260504173304 22 295 3.2 12.9 0.00 0.03 0.00 51 1005.3
20260504172804 22 326 0.0 14.5 0.00 0.03 0.00 51 1005.3
20260504172304 21 329 1.6 4.8 0.00 0.03 0.00 51 1005.4
20260504171804 21 349 1.6 4.8 0.00 0.03 0.00 51 1005.4
20260504171304 22 25 1.6 19.3 0.00 0.03 0.00 51 1005.3
20260504170304 22 130 0.0 4.8 0.00 0.03 0.00 51 1005.4
20260504160304 20 332 0.0 4.8 0.00 0.03 0.00 55 1005.9
20260504150804 18 51 0.0 3.2 0.00 0.03 0.00 57 1006.3
20260504150305 18 315 1.6 11.3 0.00 0.03 0.00 58 1006.3
20260504141304 16 356 1.6 8.0 0.00 0.03 0.00 60 1006.8
20260504140805 16 339 1.6 4.8 0.00 0.03 0.00 61 1006.8
20260504140304 16 318 1.6 8.0 0.00 0.03 0.00 62 1006.9
20260504130803 14 28 0.0 3.2 0.00 0.03 0.00 63 1007.3
20260504130304 14 355 0.0 4.8 0.00 0.03 0.00 63 1007.1
20260504120304 12 146 0.0 1.6 0.00 0.03 0.00 65 1007.1
20260504110304 11 180 0.0 1.6 0.00 0.03 0.00 68 1006.9
20260504100304 11 151 0.0 0.0 0.00 0.03 0.00 66 1007.5
20260504080803 11 359 0.0 0.0 0.00 0.03 0.00 62 1008.0
20260504080304 11 176 0.0 0.0 0.00 0.03 0.00 62 1008.0
20260504070304 12 8 0.0 0.0 0.00 0.03 0.00 60 1008.5
20260504050304 13 353 0.0 1.6 0.00 0.03 0.00 56 1009.6
20260504045803 13 42 0.0 1.6 0.00 0.03 0.00 56 1009.7
20260504044804 13 173 0.0 1.6 0.00 0.03 0.00 56 1009.7
20260504044303 13 114 0.0 1.6 0.00 0.03 0.00 56 1009.7
20260504043303 13 11 0.0 1.6 0.00 0.03 0.00 55 1009.8
20260504041804 13 80 0.0 3.2 0.00 0.03 0.00 55 1010.0
20260504041304 13 265 0.0 1.6 0.00 0.03 0.00 56 1010.0
20260504040804 13 170 0.0 0.0 0.00 0.03 0.00 56 1010.1
20260504040304 13 25 0.0 1.6 0.00 0.03 0.00 57 1010.1
20260504035804 13 0 0.0 0.0 0.00 0.03 0.03 57 1010.0
20260504034804 12 359 0.0 0.0 0.00 0.03 0.03 58 1010.2
20260504033803 12 154 0.0 0.0 0.00 0.03 0.03 59 1010.3
20260504033303 12 176 0.0 0.0 0.00 0.03 0.03 60 1010.3
20260504031804 12 98 0.0 0.0 0.00 0.03 0.03 64 1010.4
20260504030804 12 98 0.0 0.0 0.00 0.03 0.03 65 1010.5
20260504025803 12 98 0.0 0.0 0.00 0.03 0.03 65 1010.7
20260504025304 12 98 0.0 1.6 0.00 0.03 0.03 65 1010.7
20260504024804 12 98 0.0 0.0 0.00 0.03 0.03 65 1010.7
20260504024303 12 98 0.0 0.0 0.00 0.03 0.03 65 1010.7
20260504023804 12 98 0.0 0.0 0.00 0.03 0.03 65 1010.8
20260504023304 12 98 0.0 0.0 0.00 0.03 0.03 66 1010.8
20260504022304 12 98 0.0 0.0 0.00 0.03 0.03 66 1010.7
20260504021804 12 97 0.0 0.0 0.00 0.03 0.03 66 1010.8
20260504020804 12 98 0.0 0.0 0.00 0.03 0.03 66 1010.8
20260504015804 11 97 0.0 0.0 0.00 0.03 0.03 66 1010.9
20260504015304 11 97 0.0 0.0 0.00 0.03 0.03 66 1010.8
20260504014804 11 97 0.0 0.0 0.00 0.03 0.03 66 1010.9
20260504014304 11 97 0.0 0.0 0.00 0.03 0.03 66 1010.8
20260504013304 11 97 0.0 0.0 0.00 0.03 0.03 66 1010.8
20260504012803 11 97 0.0 0.0 0.00 0.03 0.03 66 1010.7
20260504012304 11 97 0.0 0.0 0.00 0.03 0.03 66 1010.7
20260504011303 11 97 0.0 0.0 0.00 0.03 0.03 67 1010.9
20260504010803 11 96 0.0 0.0 0.00 0.03 0.03 67 1010.8
20260504010303 11 96 0.0 0.0 0.00 0.03 0.03 67 1010.9
20260504005803 11 98 0.0 0.0 0.00 0.03 0.03 67 1010.9
20260504005304 11 98 0.0 0.0 0.00 0.03 0.03 67 1010.9
20260504004804 11 97 0.0 0.0 0.00 0.03 0.03 67 1010.8
20260504004303 11 97 0.0 0.0 0.00 0.03 0.03 67 1010.7
20260504003804 11 97 0.0 0.0 0.00 0.03 0.03 66 1010.7
20260504003304 11 97 0.0 0.0 0.00 0.03 0.03 66 1010.8
20260504002304 11 103 0.0 0.0 0.00 0.03 0.03 66 1010.8
20260504001804 11 103 0.0 0.0 0.00 0.03 0.03 66 1010.7
20260504001304 11 103 0.0 0.0 0.00 0.03 0.03 66 1010.9
20260504000803 11 82 0.0 0.0 0.00 0.03 0.03 66 1010.9
20260503235803 11 82 0.0 0.0 0.00 0.03 0.03 66 1010.8
20260503234804 11 74 0.0 0.0 0.00 0.03 0.03 66 1010.9
20260503234304 11 82 0.0 0.0 0.00 0.03 0.03 67 1010.7
20260503233304 11 82 0.0 0.0 0.00 0.03 0.03 67 1010.7
20260503232804 11 92 0.0 0.0 0.00 0.03 0.03 67 1010.7
20260503231804 11 113 0.0 0.0 0.00 0.03 0.03 68 1010.7
20260503231304 11 86 0.0 0.0 0.00 0.03 0.03 68 1010.9
20260503230804 11 103 0.0 0.0 0.00 0.03 0.03 68 1011.1
20260503230304 11 77 0.0 0.0 0.00 0.03 0.03 69 1011.4
20260503225804 11 84 0.0 0.0 0.00 0.03 0.03 69 1011.4
20260503225305 11 81 0.0 0.0 0.00 0.03 0.03 70 1011.6
20260503224804 11 96 0.0 0.0 0.00 0.03 0.03 69 1011.7
20260503224303 11 88 0.0 0.0 0.00 0.03 0.03 69 1012.0
20260503223804 11 65 0.0 0.0 0.00 0.03 0.03 70 1011.9
20260503223305 11 67 0.0 0.0 0.00 0.03 0.03 69 1012.0
20260503222304 11 52 0.0 0.0 0.03 0.03 0.03 69 1012.3
20260503221804 11 61 0.0 0.0 0.03 0.03 0.03 68 1012.4
20260503221303 11 42 0.0 0.0 0.03 0.03 0.03 70 1012.5
20260503220304 11 42 0.0 0.0 0.03 0.03 0.03 69 1012.5
20260503215804 11 42 0.0 0.0 0.03 0.03 0.03 69 1012.6